Weather History for LEPA - November, 2013

Change the Weather History Date:

Friday, November 29, 2013

  Actual Average Record
Temperature  
Mean Temperature 44 °F -  
Max Temperature 52 °F 59 °F 69 °F (2011)
Min Temperature 35 °F 41 °F 35 °F (2013)
Degree Days  
Heating Degree Days 22    
Moisture  
Dew Point 39 °F    
Average Humidity 87    
Maximum Humidity 100    
Minimum Humidity 48    
Precipitation  
Precipitation 0.04 in 0.06 in - ()
Sea Level Pressure  
Sea Level Pressure 30.30 in    
Wind  
Wind Speed 3 mph ()    
Max Wind Speed 16 mph    
Max Gust Speed -    
Visibility 6.4 miles    
Events Rain    
Averages and records for this station are not official NWS values.
T = Trace of Precipitation, MM = Missing Value Source: Averaged Metar Reports

Daily Weather History Graph

Daily Weather History Graph

Search for Another Location

Airport or City:

Trip Planner

Search our weather history database for the weather conditions in past years. The results will help you decide how hot, cold, wet, or windy it might be!

Date:

Astronomy

Nov. 29, 2013 Rise Set
Actual Time 7:48 AM CET 5:26 PM CET
Civil Twilight 7:18 AM CET 5:55 PM CET
Nautical Twilight 6:45 AM CET 6:29 PM CET
Astronomical Twilight 6:13 AM CET 7:01 PM CET
Moon 3:38 AM CET (11/29) 3:00 PM CET (11/29)
Length of Visible Light 10h 37m
Length of Day
9h 37m
Waning Crescent, 16% of the Moon is Illuminated
Nov 29
Waning Crescent
Dec 3
New
Dec 9
First Quarter
Dec 17
Full
Dec 25
Last Quarter

Hourly Weather History & Observations

Time (CET) Temp. Windchill Dew Point Humidity Pressure Visibility Wind Dir Wind Speed Gust Speed Precip Events Conditions
12:00 AM 36 °F - 35 °F 93% 30.36 in - NW 1.2 mph - -  
12:00 AM 35.6 °F - 33.8 °F 93% 30.33 in 6.2 mi ENE 2.3 mph - N/A   Partly Cloudy
12:30 AM 37.4 °F - 35.6 °F 93% 30.33 in 6.2 mi Calm Calm - N/A   Partly Cloudy
1:00 AM 37 °F - 36 °F 92% 30.35 in 12 mi Calm Calm - -   Scattered Clouds
1:00 AM 37.4 °F - 35.6 °F 93% 30.33 in 6.2 mi Calm Calm - N/A   Partly Cloudy
1:30 AM 37.4 °F - 35.6 °F 93% 30.33 in 6.2 mi Calm Calm - N/A   Scattered Clouds
2:00 AM 38 °F - 37 °F 95% 30.34 in - Calm Calm - -  
2:00 AM 37.4 °F - 37.4 °F 100% 30.33 in 6.2 mi Calm Calm - N/A   Scattered Clouds
2:30 AM 39.2 °F - 37.4 °F 93% 30.33 in 6.2 mi Calm Calm - N/A   Scattered Clouds
3:00 AM 40 °F - 38 °F 91% 30.34 in - Calm Calm - -  
3:00 AM 41.0 °F - 39.2 °F 93% 30.33 in 6.2 mi Variable 1.2 mph - N/A   Scattered Clouds
3:30 AM 41.0 °F - 39.2 °F 93% 30.33 in 6.2 mi Calm Calm - N/A   Scattered Clouds
4:00 AM 41.0 °F - 39.2 °F 93% 30.30 in 6.2 mi Calm Calm - N/A   Partly Cloudy
4:30 AM 39.2 °F - 37.4 °F 93% 30.30 in 6.2 mi Calm Calm - N/A   Partly Cloudy
5:00 AM 38 °F - 37 °F 93% 30.32 in - ENE 2.3 mph - -  
5:00 AM 39.2 °F - 37.4 °F 93% 30.30 in 6.2 mi Calm Calm - N/A   Partly Cloudy
5:30 AM 39.2 °F 37.0 °F 37.4 °F 93% 30.30 in 6.2 mi NNW 3.5 mph - N/A   Partly Cloudy
6:00 AM 40 °F - 36 °F 78% 30.32 in - Calm Calm - -  
6:00 AM 41.0 °F - 37.4 °F 87% 30.30 in 6.2 mi Variable 1.2 mph - N/A   Partly Cloudy
6:30 AM 41.0 °F - 37.4 °F 87% 30.30 in 6.2 mi Variable 2.3 mph - N/A   Partly Cloudy
7:00 AM 41 °F - 35 °F 73% 30.32 in 12 mi NNW 4.6 mph - -   Scattered Clouds
7:00 AM 41.0 °F - 35.6 °F 81% 30.30 in 6.2 mi Calm Calm - N/A   Partly Cloudy
7:30 AM 39.2 °F - 35.6 °F 87% 30.30 in 6.2 mi Calm Calm - N/A   Partly Cloudy
8:00 AM 36 °F - 33 °F 87% 30.32 in - East 3.5 mph - -  
8:00 AM 37.4 °F - 33.8 °F 87% 30.30 in 6.2 mi East 2.3 mph - N/A   Partly Cloudy
8:30 AM 37.4 °F - 33.8 °F 87% 30.30 in 6.2 mi Variable 1.2 mph - N/A   Partly Cloudy
9:00 AM 41 °F - 37 °F 80% 30.33 in 2 mi NNE 1.2 mph - -   Scattered Clouds
9:00 AM 41.0 °F 39.0 °F 37.4 °F 87% 30.33 in 6.2 mi NE 3.5 mph - N/A   Partly Cloudy
9:30 AM 44.6 °F 40.2 °F 39.2 °F 81% 30.33 in 6.2 mi NE 8.1 mph - N/A   Partly Cloudy
10:00 AM 48.2 °F - 41.0 °F 76% 30.33 in 6.2 mi ENE 8.1 mph - N/A   Partly Cloudy
10:30 AM 51.8 °F - 37.4 °F 58% 30.33 in 6.2 mi NNE 6.9 mph - N/A   Partly Cloudy
11:00 AM 51 °F - 37 °F 48% 30.34 in - NNE 8.1 mph - -  
11:00 AM 51.8 °F - 35.6 °F 54% 30.33 in 6.2 mi NNE 9.2 mph - N/A   Partly Cloudy
11:30 AM 48.2 °F - 41.0 °F 76% 30.33 in 6.2 mi ENE 12.7 mph - N/A   Partly Cloudy
12:00 PM 48 °F - 40 °F 66% 30.33 in - ENE 13.8 mph - -  
12:00 PM 46.4 °F 40.7 °F 41.0 °F 81% 30.30 in 6.2 mi ENE 12.7 mph - N/A   Partly Cloudy
12:30 PM 48.2 °F - 39.2 °F 71% 30.30 in 6.2 mi NE 12.7 mph - N/A Rain Light Rain
1:00 PM 45 °F - 42 °F 87% 30.32 in 2 mi ENE 15.0 mph - - Rain Light Rain
1:00 PM 44.6 °F 38.4 °F 42.8 °F 93% 30.30 in 6.2 mi ENE 12.7 mph - N/A Rain Light Rain
1:30 PM 46.4 °F 42.4 °F 42.8 °F 87% 30.30 in 6.2 mi ENE 8.1 mph - N/A   Scattered Clouds
2:00 PM 48 °F - 43 °F 77% 30.30 in - ENE 8.1 mph - -   Unknown Precipitation
2:00 PM 46.4 °F 41.9 °F 44.6 °F 93% 30.27 in 6.2 mi ENE 9.2 mph - N/A   Mostly Cloudy
2:30 PM 48.2 °F - 44.6 °F 87% 30.27 in 6.2 mi ENE 10.4 mph - N/A   Mostly Cloudy
3:00 PM 49 °F - 44 °F 76% 30.28 in - ENE 13.8 mph - -  
3:00 PM 48.2 °F - 44.6 °F 87% 30.27 in 6.2 mi NE 16.1 mph - N/A Rain Light Rain
3:30 PM 48.2 °F - 44.6 °F 87% 30.27 in 6.2 mi NE 12.7 mph - N/A   Scattered Clouds
4:00 PM 48.2 °F - 42.8 °F 82% 30.27 in 6.2 mi NNE 11.5 mph - N/A   Partly Cloudy
4:30 PM 48.2 °F - 42.8 °F 82% 30.27 in 6.2 mi NNE 8.1 mph - N/A   Partly Cloudy
5:00 PM 48 °F - 43 °F 75% 30.27 in - NNE 3.5 mph - -  
5:00 PM 48.2 °F - 42.8 °F 82% 30.24 in 6.2 mi ENE 8.1 mph - N/A   Partly Cloudy
5:30 PM 46.4 °F 41.9 °F 42.8 °F 87% 30.24 in 6.2 mi ENE 9.2 mph - N/A   Partly Cloudy
6:00 PM 45 °F - 42 °F 86% 30.27 in - Calm Calm - -  
6:00 PM 44.6 °F - 42.8 °F 93% 30.27 in 6.2 mi Variable 1.2 mph - N/A   Partly Cloudy
6:30 PM 44.6 °F - 42.8 °F 93% 30.27 in 6.2 mi Variable 1.2 mph - N/A   Partly Cloudy
7:00 PM 43 °F - 41 °F 92% 30.28 in 12 mi Calm Calm - -   Partly Cloudy
7:00 PM 42.8 °F - 42.8 °F 100% 30.27 in 6.2 mi Calm Calm - N/A   Partly Cloudy
7:30 PM 42.8 °F - 41.0 °F 93% 30.27 in 6.2 mi Calm Calm - N/A   Partly Cloudy
8:00 PM 41 °F - 39 °F 90% 30.28 in - North 3.5 mph - -  
8:00 PM 41.0 °F - 39.2 °F 93% 30.27 in 6.2 mi Calm Calm - N/A   Partly Cloudy
8:30 PM 41.0 °F - 39.2 °F 93% 30.27 in 6.2 mi ENE 1.2 mph - N/A   Partly Cloudy
9:00 PM 41 °F - 39 °F 88% 30.28 in - ESE 2.3 mph - -  
9:00 PM 41.0 °F - 39.2 °F 93% 30.27 in 6.2 mi SE 1.2 mph - N/A   Partly Cloudy
9:30 PM 39.2 °F - 37.4 °F 93% 30.27 in 6.2 mi Calm Calm - N/A   Partly Cloudy
10:00 PM 37.4 °F - 37.4 °F 100% 30.27 in 6.2 mi Variable 2.3 mph - N/A   Partly Cloudy
10:30 PM 35.6 °F 32.8 °F 35.6 °F 100% 30.27 in 6.2 mi NE 3.5 mph - N/A   Partly Cloudy
11:00 PM 38 °F - 36 °F 91% 30.29 in - North 4.6 mph - -  
11:00 PM 37.4 °F - 37.4 °F 100% 30.27 in 6.2 mi Variable 2.3 mph - N/A   Partly Cloudy
11:30 PM 37.4 °F 33.8 °F 35.6 °F 93% 30.27 in 6.2 mi ENE 4.6 mph - N/A   Partly Cloudy